TimeMST,TemperatureF,Dew PointF,Humidity,Sea Level PressureIn,VisibilityMPH,Wind Direction,Wind SpeedMPH,Gust SpeedMPH,PrecipitationIn,Events,Conditions,WindDirDegrees,DateUTC
12:15 AM,55.4,35.6,47,30.19,10.0,North,6.9,-,N/A,,Clear,10,2013-02-01 07:15:00
12:35 AM,53.6,35.6,51,30.18,10.0,NNE,6.9,-,N/A,,Clear,20,2013-02-01 07:35:00
12:55 AM,53.6,35.6,51,30.18,10.0,North,6.9,-,N/A,,Clear,10,2013-02-01 07:55:00
1:15 AM,53.6,35.6,51,30.19,10.0,NE,3.5,-,N/A,,Clear,40,2013-02-01 08:15:00
1:35 AM,53.6,35.6,51,30.18,10.0,North,6.9,-,N/A,,Clear,360,2013-02-01 08:35:00
1:55 AM,50.0,35.6,58,30.18,10.0,NNE,3.5,-,N/A,,Clear,30,2013-02-01 08:55:00
2:15 AM,51.8,35.6,54,30.19,10.0,Calm,Calm,-,N/A,,Clear,0,2013-02-01 09:15:00
2:35 AM,48.2,35.6,62,30.19,10.0,Calm,Calm,-,N/A,,Clear,0,2013-02-01 09:35:00
3:15 AM,48.2,35.6,62,30.20,10.0,South,3.5,-,N/A,,Clear,180,2013-02-01 10:15:00
3:35 AM,48.2,35.6,62,30.20,10.0,South,4.6,-,N/A,,Clear,180,2013-02-01 10:35:00
3:55 AM,48.2,35.6,62,30.20,10.0,South,4.6,-,N/A,,Clear,190,2013-02-01 10:55:00
4:15 AM,48.2,33.8,58,30.20,10.0,SSW,3.5,-,N/A,,Clear,200,2013-02-01 11:15:00
4:35 AM,46.4,35.6,66,30.20,10.0,SSE,3.5,-,N/A,,Clear,150,2013-02-01 11:35:00
5:15 AM,44.6,35.6,71,30.20,10.0,Calm,Calm,-,N/A,,Clear,0,2013-02-01 12:15:00
5:35 AM,46.4,35.6,66,30.19,10.0,Calm,Calm,-,N/A,,Clear,0,2013-02-01 12:35:00
5:55 AM,46.4,33.8,62,30.19,10.0,Calm,Calm,-,N/A,,Clear,0,2013-02-01 12:55:00
6:15 AM,50.0,33.8,54,30.19,10.0,NNE,3.5,-,N/A,,Clear,20,2013-02-01 13:15:00
6:35 AM,50.0,33.8,54,30.20,10.0,Calm,Calm,-,N/A,,Clear,0,2013-02-01 13:35:00
6:55 AM,46.4,35.6,66,30.20,10.0,Calm,Calm,-,N/A,,Clear,0,2013-02-01 13:55:00
7:15 AM,48.2,35.6,62,30.21,10.0,Calm,Calm,-,N/A,,Clear,0,2013-02-01 14:15:00
7:35 AM,46.4,35.6,66,30.22,10.0,Calm,Calm,-,N/A,,Clear,0,2013-02-01 14:35:00
7:55 AM,48.2,35.6,62,30.22,10.0,North,3.5,-,N/A,,Clear,10,2013-02-01 14:55:00
8:15 AM,46.4,35.6,66,30.23,10.0,SSW,3.5,-,N/A,,Clear,210,2013-02-01 15:15:00
8:35 AM,44.6,35.6,71,30.24,10.0,South,3.5,-,N/A,,Clear,180,2013-02-01 15:35:00
9:15 AM,46.4,35.6,66,30.25,10.0,Calm,Calm,-,N/A,,Clear,0,2013-02-01 16:15:00
9:35 AM,50.0,35.6,58,30.24,10.0,NW,5.8,-,N/A,,Clear,320,2013-02-01 16:35:00
9:55 AM,57.2,32.0,38,30.23,10.0,North,19.6,24.2,N/A,,Clear,10,2013-02-01 16:55:00
10:15 AM,57.2,32.0,38,30.23,10.0,North,18.4,-,N/A,,Clear,10,2013-02-01 17:15:00
10:35 AM,59.0,32.0,36,30.23,10.0,North,17.3,23.0,N/A,,Clear,10,2013-02-01 17:35:00
10:55 AM,59.0,32.0,36,30.23,10.0,North,18.4,-,N/A,,Clear,10,2013-02-01 17:55:00
11:15 AM,60.8,32.0,34,30.23,10.0,North,21.9,28.8,N/A,,Clear,360,2013-02-01 18:15:00
11:35 AM,62.6,32.0,32,30.22,10.0,North,25.3,31.1,N/A,,Clear,360,2013-02-01 18:35:00
11:55 AM,62.6,32.0,32,30.21,10.0,North,24.2,-,N/A,,Clear,360,2013-02-01 18:55:00
12:15 PM,64.4,32.0,30,30.21,10.0,North,24.2,29.9,N/A,,Clear,350,2013-02-01 19:15:00
12:35 PM,64.4,32.0,30,30.20,10.0,North,23.0,-,N/A,,Clear,360,2013-02-01 19:35:00
12:55 PM,64.4,32.0,30,30.20,10.0,North,18.4,26.5,N/A,,Clear,360,2013-02-01 19:55:00
1:15 PM,66.2,32.0,28,30.19,10.0,North,17.3,26.5,N/A,,Clear,350,2013-02-01 20:15:00
1:35 PM,66.2,32.0,28,30.19,10.0,North,17.3,-,N/A,,Clear,350,2013-02-01 20:35:00
1:55 PM,68.0,32.0,26,30.18,10.0,North,17.3,23.0,N/A,,Clear,360,2013-02-01 20:55:00
2:15 PM,68.0,32.0,26,30.17,10.0,North,19.6,-,N/A,,Clear,360,2013-02-01 21:15:00
2:35 PM,68.0,32.0,26,30.17,10.0,North,16.1,21.9,N/A,,Clear,360,2013-02-01 21:35:00
2:55 PM,68.0,32.0,26,30.17,10.0,North,15.0,23.0,N/A,,Clear,360,2013-02-01 21:55:00
3:15 PM,69.8,32.0,25,30.16,10.0,North,18.4,21.9,N/A,,Clear,360,2013-02-01 22:15:00
3:35 PM,69.8,32.0,25,30.15,10.0,North,18.4,25.3,N/A,,Clear,360,2013-02-01 22:35:00
3:55 PM,69.8,32.0,25,30.15,10.0,North,18.4,23.0,N/A,,Clear,360,2013-02-01 22:55:00
4:15 PM,69.8,32.0,25,30.15,10.0,North,16.1,-,N/A,,Clear,360,2013-02-01 23:15:00
4:35 PM,69.8,32.0,25,30.14,10.0,North,20.7,-,N/A,,Clear,350,2013-02-01 23:35:00
4:55 PM,68.0,32.0,26,30.15,10.0,North,16.1,-,N/A,,Clear,360,2013-02-01 23:55:00
5:15 PM,68.0,32.0,26,30.14,10.0,North,16.1,-,N/A,,Clear,360,2013-02-02 00:15:00
5:35 PM,68.0,32.0,26,30.14,10.0,North,12.7,17.3,N/A,,Clear,360,2013-02-02 00:35:00
5:55 PM,66.2,32.0,28,30.15,10.0,North,13.8,-,N/A,,Clear,10,2013-02-02 00:55:00
6:15 PM,66.2,32.0,28,30.16,10.0,NNE,10.4,-,N/A,,Clear,30,2013-02-02 01:15:00
6:35 PM,66.2,32.0,28,30.17,10.0,NNE,10.4,-,N/A,,Clear,30,2013-02-02 01:35:00
6:55 PM,64.4,32.0,30,30.18,10.0,NE,10.4,-,N/A,,Clear,40,2013-02-02 01:55:00
7:15 PM,62.6,32.0,32,30.18,10.0,North,3.5,-,N/A,,Clear,350,2013-02-02 02:15:00
7:35 PM,62.6,33.8,34,30.19,10.0,WSW,3.5,-,N/A,,Clear,250,2013-02-02 02:35:00
7:55 PM,62.6,33.8,34,30.20,10.0,NNE,5.8,-,N/A,,Clear,20,2013-02-02 02:55:00
8:15 PM,59.0,35.6,42,30.21,10.0,Calm,Calm,-,N/A,,Clear,0,2013-02-02 03:15:00
8:35 PM,57.2,35.6,44,30.21,10.0,Calm,Calm,-,N/A,,Clear,0,2013-02-02 03:35:00
8:55 PM,57.2,35.6,44,30.22,10.0,East,3.5,-,N/A,,Clear,80,2013-02-02 03:55:00
9:15 PM,57.2,35.6,44,30.22,10.0,North,3.5,-,N/A,,Clear,10,2013-02-02 04:15:00
9:35 PM,57.2,33.8,41,30.22,10.0,NNE,4.6,-,N/A,,Clear,30,2013-02-02 04:35:00
9:55 PM,57.2,35.6,44,30.23,10.0,Calm,Calm,-,N/A,,Clear,0,2013-02-02 04:55:00
10:15 PM,57.2,35.6,44,30.23,10.0,Calm,Calm,-,N/A,,Clear,0,2013-02-02 05:15:00
10:35 PM,55.4,35.6,47,30.24,10.0,NNE,4.6,-,N/A,,Clear,30,2013-02-02 05:35:00
10:55 PM,57.2,35.6,44,30.24,10.0,NNE,5.8,-,N/A,,Clear,20,2013-02-02 05:55:00
11:15 PM,55.4,35.6,47,30.24,10.0,North,3.5,-,N/A,,Clear,10,2013-02-02 06:15:00
11:35 PM,55.4,35.6,47,30.24,10.0,North,5.8,-,N/A,,Clear,10,2013-02-02 06:35:00
11:55 PM,55.4,37.4,51,30.24,10.0,North,4.6,-,N/A,,Clear,360,2013-02-02 06:55:00